カタログに戻る

QIANFAN-184

運用中通信PO
NORAD 69402·PAYLOAD·🇨🇳 China

打ち上げ Jun 5, 2026 から Wenchang Space Launch Site

Loading…

次のパス (今後24時間)

TLE

最新Source: Space-Track

元期: Sep 14, 2026, 21:48 UTC

1 69402U 26125B   26257.90847474  .00000019  00000-0  10392-4 0  9991
2 69402  88.9883 270.9022 0001931  97.6155 262.5216 13.51028582 14055

AllMySatでQIANFAN-184をリアルタイム追跡

Download on the App Store